Weather History for Mt. Clemens, MI

Change the Weather History Date:

Friday, February 22, 2013

  Actual Average Record
Temperature  
Mean Temperature 28 °F -  
Max Temperature 33 °F 38 °F 56 °F (1984)
Min Temperature 23 °F 23 °F -4 °F (1963)
Degree Days  
Heating Degree Days 37    
Moisture  
Dew Point 27 °F    
Average Humidity 94    
Maximum Humidity 100    
Minimum Humidity 80    
Precipitation  
Precipitation 0.24 in - - ()
Snow  
Snow 0.00 in - - ()
Snow Depth 3.00 in    
Sea Level Pressure  
Sea Level Pressure 29.97 in    
Wind  
Wind Speed 15 mph (SE)    
Max Wind Speed 22 mph    
Max Gust Speed -    
Visibility 3 miles    
Events Fog , Snow    
Averages and records for this station are not official NWS values.
T = Trace of Precipitation, MM = Missing Value Source: NWS Daily Summary

Daily Weather History Graph

Daily Weather History Graph

Search for Another Location

Airport:

Trip Planner

Search our weather history database for the weather conditions in past years. The results will help you decide how hot, cold, wet, or windy it might be!

Date:

Astronomy

Feb. 22, 2013 Rise Set
Actual Time 7:17 AM EST 6:12 PM EST
Civil Twilight 6:49 AM EST 6:41 PM EST
Nautical Twilight 6:16 AM EST 7:13 PM EST
Astronomical Twilight 5:43 AM EST 7:46 PM EST
Moon 3:20 PM EST (2/22) 5:04 AM EST (2/22)
Length of Visible Light 11h 52m
Length of Day
10h 55m
Waxing Gibbous, 90% of the Moon is Illuminated
Feb 22
Waxing Gibbous
Feb 25
Full
Mar 4
Last Quarter
Mar 11
New
Mar 19
First Quarter

Hourly Weather History & Observations

Time (EST) Temp. Windchill Dew Point Humidity Pressure Visibility Wind Dir Wind Speed Gust Speed Precip Events Conditions
4:55 AM 23.0 °F 9.2 °F 17.6 °F 80% 30.17 in 10.0 mi East 17.3 mph - N/A   Overcast
5:19 AM 23.0 °F 9.2 °F 19.4 °F 86% 30.10 in 10.0 mi East 17.3 mph - N/A   Overcast
5:55 AM 23.0 °F 11.1 °F 19.4 °F 86% 30.14 in 10.0 mi East 12.7 mph - N/A   Overcast
6:55 AM 24.8 °F 14.0 °F 19.4 °F 80% 30.14 in 10.0 mi East 11.5 mph - N/A   Overcast
7:30 AM 24.8 °F 12.4 °F 21.2 °F 86% 30.07 in 10.0 mi East 15.0 mph - N/A Snow Light Snow
7:55 AM 24.8 °F 11.5 °F 21.2 °F 86% 30.11 in 3.0 mi East 17.3 mph - N/A Snow Light Snow
8:04 AM 24.8 °F 11.5 °F 21.2 °F 86% 30.05 in 0.8 mi East 17.3 mph - N/A Snow Light Snow
8:28 AM 24.8 °F 11.1 °F 23.0 °F 93% 30.04 in 0.8 mi East 18.4 mph - N/A Snow Light Snow
8:45 AM 24.8 °F 11.9 °F 23.0 °F 93% 30.03 in 0.5 mi East 16.1 mph - N/A Fog , Snow Snow
8:55 AM 24.8 °F 11.1 °F 23.0 °F 93% 30.06 in 0.5 mi East 18.4 mph - N/A Fog , Snow Snow
9:15 AM 24.8 °F 11.5 °F 23.0 °F 93% 30.00 in 0.2 mi East 17.3 mph - N/A Fog , Snow Heavy Snow
9:55 AM 24.8 °F 11.9 °F 23.0 °F 93% 30.04 in 0.2 mi East 16.1 mph - N/A Fog , Snow Heavy Snow
10:15 AM 24.8 °F 12.4 °F 24.8 °F 100% 29.97 in 0.5 mi East 15.0 mph - N/A Fog , Snow Snow
10:37 AM 26.6 °F 14.3 °F 24.8 °F 93% 29.97 in 0.8 mi ESE 16.1 mph - N/A Snow Light Snow
10:55 AM 26.6 °F 13.8 °F 24.8 °F 93% 30.01 in 0.8 mi ESE 17.3 mph - N/A Snow Light Snow
11:22 AM 28.4 °F 14.7 °F 26.6 °F 93% 29.95 in 1.5 mi ESE 21.9 mph - N/A Snow Light Snow
11:40 AM 28.4 °F 15.8 °F 26.6 °F 93% 29.94 in 3.0 mi ESE 18.4 mph - N/A Snow Light Snow
11:49 AM 28.4 °F 15.4 °F 26.6 °F 93% 29.93 in 7.0 mi ESE 19.6 mph - N/A Snow Light Snow
11:55 AM 28.4 °F 16.6 °F 26.6 °F 93% 29.98 in 8.0 mi ESE 16.1 mph - N/A Snow Light Snow
12:22 PM 28.4 °F 16.2 °F 24.8 °F 86% 29.92 in 10.0 mi ESE 17.3 mph - N/A   Overcast
12:55 PM 28.4 °F 15.8 °F 26.6 °F 93% 29.96 in 10.0 mi SE 18.4 mph - N/A   Overcast
1:12 PM 30.2 °F 19.3 °F 26.6 °F 86% 29.91 in 7.0 mi SE 15.0 mph - N/A   Overcast
1:37 PM 30.2 °F 20.2 °F 28.4 °F 93% 29.90 in 2.0 mi SE 12.7 mph - N/A   Overcast
1:55 PM 28.4 °F 17.5 °F 28.4 °F 100% 29.94 in 2.0 mi SE 13.8 mph - N/A   Overcast
2:06 PM 30.2 °F 21.3 °F 28.4 °F 93% 29.88 in 1.5 mi SE 10.4 mph - N/A   Light Freezing Drizzle
2:55 PM 30.2 °F 20.8 °F 30.2 °F 100% 29.94 in 1.2 mi SE 11.5 mph - N/A   Light Freezing Drizzle
3:24 PM 30.2 °F 23.4 °F 30.2 °F 100% 29.89 in 1.0 mi SE 6.9 mph - N/A   Light Freezing Drizzle
3:46 PM 30.2 °F 21.3 °F 30.2 °F 100% 29.88 in 1.0 mi SE 10.4 mph - N/A   Overcast
3:55 PM 30.2 °F 21.3 °F 30.2 °F 100% 29.93 in 1.0 mi SE 10.4 mph - N/A   Overcast
4:06 PM 30.2 °F 21.9 °F 30.2 °F 100% 29.88 in 1.0 mi SSE 9.2 mph - N/A   Light Freezing Drizzle
4:24 PM 30.2 °F 21.9 °F 30.2 °F 100% 29.88 in 0.8 mi SSE 9.2 mph - N/A   Overcast
4:55 PM 32.0 °F 23.6 °F 30.2 °F 93% 29.93 in 0.8 mi SSE 10.4 mph - N/A   Overcast
5:51 PM 32.0 °F 25.6 °F 32.0 °F 100% 29.88 in 0.6 mi South 6.9 mph - N/A   Light Freezing Drizzle
5:55 PM 32.0 °F 25.6 °F 32.0 °F 100% 29.92 in 0.5 mi South 6.9 mph - N/A Fog Light Freezing Drizzle
6:16 PM 32.0 °F 24.8 °F 32.0 °F 100% 29.87 in 0.4 mi South 8.1 mph - N/A Fog Light Freezing Drizzle
6:26 PM 32.0 °F 25.6 °F 32.0 °F 100% 29.88 in 0.5 mi South 6.9 mph - N/A Fog Light Freezing Fog
6:55 PM 32.0 °F 24.8 °F 32.0 °F 100% 29.93 in 0.2 mi South 8.1 mph - N/A Fog Light Freezing Fog
7:55 PM 32.0 °F 25.6 °F 32.0 °F 100% 29.93 in 0.2 mi South 6.9 mph - N/A Fog Fog
8:48 PM 32.0 °F 25.6 °F 32.0 °F 100% 29.88 in 2.0 mi South 6.9 mph - N/A   Overcast
8:55 PM 32.0 °F 24.8 °F 32.0 °F 100% 29.92 in 3.0 mi South 8.1 mph - N/A   Overcast
9:55 PM 33.8 °F 26.4 °F 32.0 °F 93% 29.93 in 4.0 mi SW 9.2 mph - N/A   Overcast
10:55 PM 33.8 °F 24.3 °F 32.0 °F 93% 29.97 in 5.0 mi SW 13.8 mph - N/A   Overcast